sat.trackr.live / text

‹ back to catalog

STARLINK-37801

NORAD 69435 · 2026-126R

PAYLOAD ACTIVE UNKNOWN

§ Identity

Operator
Country
US
Launch date
2026-06-07
Launch site
AFWTR
Launch vehicle
Mass (kg)
RCS (m²)

Purposes: comms

External: N2YO · Heavens-Above · Gunter

§ Orbital elements

Epoch: 2026-09-20T00:56:06.800640Z

Period
93.91 min
Inclination
97.2848°
Eccentricity
0.0001693
Mean motion
15.33461901 rev/d
Perigee alt
464.3 km
Apogee alt
466.7 km
Semi-major
6,843.6 km
B*
3.1359e-4
RAAN
124.2792°
Arg perigee
97.9262°
Mean anomaly
262.2173°
Rev number
1,750

§ Raw data

STARLINK-378011 69435U 26126R   26263.03896760  .00010068  00000+0  31359-3 0  99902 69435  97.2848 124.2792 0001693  97.9262 262.2173 15.33461901 17507

JSON: /api/v1/satellites/69435 · /tle

For live sub-satellite position, see the globe view (requires WebGL).

§ Visibility from observer

Set your observer location to see the next 7 days of passes ≥ 10°. The values pass through the URL so the page stays shareable.

No JS? Fill the form by hand. The geolocation button needs JavaScript.